{"data":{"norad_id":63711,"epoch":"2026-05-24T22:42:01.224000Z","epoch_age_seconds":90283,"freshness":"FRESH","line1":"1 63711U 25087Q   26144.94584750  .00016962  00000+0  55701-3 0  9993","line2":"2 63711  53.1587 225.4351 0001401  91.4417 268.6745 15.31706572 60879","mean_motion":15.31706572,"eccentricity":0.0001401,"inclination_deg":53.1587,"raan_deg":225.4351,"arg_perigee_deg":91.4417,"mean_anomaly_deg":268.6745,"bstar":0.00055701,"rev_number":6087,"period_min":94.012784584435,"perigee_km":469.7608795833,"apogee_km":471.67992942805,"semimajor_km":6848.8574045057,"source":"CELESTRAK","updated_at":"2026-05-25T13:38:20.099207Z"}}